^^
Saratoga-Weather Station Historical Data
Daily Summary for August 08, 2022 Units:  English    Metric   Both
Daily Weekly Monthly Yearly Custom
  High: Low: Average:
Temperature: 87.1 °F 62.2 °F 74.3 °F
Dew Point: 52 °F 45.3 °F 49.1 °F
Humidity: 60% 28% 43%
Wind Speed: 8.9mph 0mph 2.3mph
Wind Gust: 15mph - -
Wind- - SW
Pressure: 30.2 in 30.1 in -
Precipitation: 0 in    
Historical Graphs
 
 
Tabular Data for August 08, 2022
Time Temperature Dew Point Pressure Wind Wind Speed Wind Gust Humidity Rainfall Rate (Hourly) solar
00:00 68.7 °F 45.3 °F 30.1 in North 2 mph 5 mph 43% 0 in 0 W/m2
00:05 68.7 °F 45.3 °F 30.1 in West 2 mph 4 mph 43% 0 in 0 W/m2
00:10 68.7 °F 45.3 °F 30.1 in West 0.9 mph 4 mph 43% 0 in 0 W/m2
00:15 68.7 °F 45.3 °F 30.1 in West 6 mph 7 mph 43% 0 in 0 W/m2
00:20 68.7 °F 45.3 °F 30.1 in West 2.9 mph 7 mph 43% 0 in 0 W/m2
00:25 68.7 °F 45.3 °F 30.1 in West 6 mph 9 mph 43% 0 in 0 W/m2
00:30 68.5 °F 45.7 °F 30.1 in WSW 4 mph 6 mph 44% 0 in 0 W/m2
00:35 68.5 °F 45.7 °F 30.1 in NNW 2 mph 6 mph 44% 0 in 0 W/m2
00:40 68.4 °F 45.7 °F 30.1 in West 2.9 mph 6 mph 44% 0 in 0 W/m2
00:45 68.4 °F 46.2 °F 30.1 in NW 2 mph 7 mph 45% 0 in 0 W/m2
00:50 68.2 °F 46 °F 30.1 in West 2.9 mph 4 mph 45% 0 in 0 W/m2
00:55 68.2 °F 46 °F 30.1 in North 2.9 mph 6 mph 45% 0 in 0 W/m2
01:00 68.2 °F 46 °F 30.1 in WNW 2 mph 4 mph 45% 0 in 0 W/m2
01:05 68 °F 46.4 °F 30.1 in West 0.9 mph 3 mph 46% 0 in 0 W/m2
01:10 67.8 °F 46.2 °F 30.1 in West 4 mph 5 mph 46% 0 in 0 W/m2
01:15 67.6 °F 46 °F 30.1 in NW 2 mph 5 mph 46% 0 in 0 W/m2
01:20 67.5 °F 46.6 °F 30.1 in NW 4 mph 9 mph 47% 0 in 0 W/m2
01:25 67.5 °F 47.1 °F 30.1 in West 2.9 mph 8 mph 48% 0 in 0 W/m2
01:30 67.3 °F 46.9 °F 30.1 in WSW 2 mph 6 mph 48% 0 in 0 W/m2
01:35 67.3 °F 47.5 °F 30.1 in West 2 mph 7 mph 49% 0 in 0 W/m2
01:40 67.1 °F 47.3 °F 30.1 in WNW 4 mph 6 mph 49% 0 in 0 W/m2
01:45 66.9 °F 47.1 °F 30.1 in West 2.9 mph 4 mph 49% 0 in 0 W/m2
01:50 66.7 °F 47.5 °F 30.1 in West 2.9 mph 8 mph 50% 0 in 0 W/m2
01:55 66.7 °F 47.5 °F 30.1 in West 2.9 mph 6 mph 50% 0 in 0 W/m2
02:00 66.7 °F 47.5 °F 30.1 in NW 2 mph 4 mph 50% 0 in 0 W/m2
02:05 66.6 °F 47.8 °F 30.1 in NNW 4 mph 4 mph 51% 0 in 0 W/m2
02:10 66.6 °F 47.8 °F 30.1 in WNW 2.9 mph 6 mph 51% 0 in 0 W/m2
02:15 66.4 °F 47.7 °F 30.1 in WNW 4 mph 7 mph 51% 0 in 0 W/m2
02:20 66.2 °F 48 °F 30.1 in South 2 mph 4 mph 52% 0 in 0 W/m2
02:25 66 °F 47.8 °F 30.1 in NW 2 mph 4 mph 52% 0 in 0 W/m2
02:30 65.8 °F 47.7 °F 30.1 in WSW 4.9 mph 8 mph 52% 0 in 0 W/m2
02:35 65.8 °F 47.7 °F 30.1 in West 2 mph 5 mph 52% 0 in 0 W/m2
02:40 65.8 °F 48.2 °F 30.1 in SW 0.9 mph 8 mph 53% 0 in 0 W/m2
02:45 65.7 °F 48 °F 30.1 in West 2 mph 4 mph 53% 0 in 0 W/m2
02:50 65.5 °F 48.4 °F 30.1 in South 2 mph 3 mph 54% 0 in 0 W/m2
02:55 65.1 °F 48 °F 30.1 in NE 2.9 mph 4 mph 54% 0 in 0 W/m2
03:00 64.9 °F 48.4 °F 30.1 in Calm   2 mph 55% 0 in 0 W/m2
03:05 64.8 °F 47.7 °F 30.1 in WSW 0.9 mph 2 mph 54% 0 in 0 W/m2
03:10 64.8 °F 48.2 °F 30.1 in WSW 2 mph 5 mph 55% 0 in 0 W/m2
03:15 64.6 °F 48 °F 30.1 in NNW 2.9 mph 3 mph 55% 0 in 0 W/m2
03:20 64.6 °F 48 °F 30.1 in WNW 2 mph 3 mph 55% 0 in 0 W/m2
03:25 64.6 °F 48 °F 30.1 in North 0.9 mph 5 mph 55% 0 in 0 W/m2
03:30 64.6 °F 48 °F 30.1 in Calm   1 mph 55% 0 in 0 W/m2
03:35 64.4 °F 48.4 °F 30.1 in Calm   3 mph 56% 0 in 0 W/m2
03:40 64 °F 48 °F 30.1 in WSW 2 mph 2 mph 56% 0 in 0 W/m2
03:45 64 °F 48 °F 30.1 in Calm   2 mph 56% 0 in 0 W/m2
03:50 63.9 °F 48.4 °F 30.1 in West 0.9 mph 2 mph 57% 0 in 0 W/m2
03:55 63.7 °F 48.2 °F 30.1 in WSW 0.9 mph 2 mph 57% 0 in 0 W/m2
04:00 63.5 °F 48 °F 30.1 in WSW 2.9 mph 3 mph 57% 0 in 0 W/m2
04:05 63.5 °F 48 °F 30.1 in WSW 2 mph 3 mph 57% 0 in 0 W/m2
04:10 63.3 °F 48.4 °F 30.1 in WSW 0.9 mph 2 mph 58% 0 in 0 W/m2
04:15 63.3 °F 48.4 °F 30.1 in Calm   3 mph 58% 0 in 0 W/m2
04:20 63.3 °F 48.4 °F 30.1 in WSW 0.9 mph 3 mph 58% 0 in 0 W/m2
04:25 63.1 °F 48.2 °F 30.1 in WSW 0.9 mph 1 mph 58% 0 in 0 W/m2
04:30 63 °F 48.4 °F 30.1 in WSW 2 mph 2 mph 59% 0 in 0 W/m2
04:35 63 °F 48.4 °F 30.1 in SW 0.9 mph 1 mph 59% 0 in 0 W/m2
04:40 62.8 °F 48.2 °F 30.1 in Calm   3 mph 59% 0 in 0 W/m2
04:45 62.8 °F 48.7 °F 30.1 in SSW 2 mph 2 mph 60% 0 in 0 W/m2
04:50 62.8 °F 48.2 °F 30.1 in Calm   1 mph 59% 0 in 0 W/m2
04:55 63 °F 48.4 °F 30.1 in WNW 2.9 mph 7 mph 59% 0 in 0 W/m2
05:00 63 °F 48.4 °F 30.1 in WNW 2 mph 2 mph 59% 0 in 0 W/m2
05:05 63 °F 48 °F 30.1 in WNW 2 mph 7 mph 58% 0 in 0 W/m2
05:10 63 °F 48 °F 30.1 in West 2 mph 2 mph 58% 0 in 0 W/m2
05:15 62.8 °F 48.2 °F 30.1 in Calm   2 mph 59% 0 in 0 W/m2
05:20 62.4 °F 48.4 °F 30.1 in WSW 2.9 mph 3 mph 60% 0 in 0 W/m2
05:25 62.4 °F 48.4 °F 30.1 in WNW 2 mph 3 mph 60% 0 in 0 W/m2
05:30 62.4 °F 47.8 °F 30.1 in WNW 2.9 mph 4 mph 59% 0 in 0 W/m2
05:35 62.6 °F 48 °F 30.1 in West 2 mph 3 mph 59% 0 in 0 W/m2
05:40 62.4 °F 47.8 °F 30.1 in West 2 mph 4 mph 59% 0 in 0 W/m2
05:45 62.6 °F 48 °F 30.1 in West 2 mph 2 mph 59% 0 in 0 W/m2
05:50 62.4 °F 47.8 °F 30.1 in West 0.9 mph 3 mph 59% 0 in 0 W/m2
05:55 62.4 °F 48.4 °F 30.1 in West 2.9 mph 4 mph 60% 0 in 0 W/m2
06:00 62.2 °F 48.2 °F 30.1 in WNW 2 mph 2 mph 60% 0 in 0 W/m2
06:05 62.2 °F 47.7 °F 30.1 in WNW 2 mph 3 mph 59% 0 in 0 W/m2
06:10 62.4 °F 47.8 °F 30.1 in West 0.9 mph 6 mph 59% 0 in 0 W/m2
06:15 62.4 °F 47.8 °F 30.1 in West 2 mph 3 mph 59% 0 in 0 W/m2
06:20 62.4 °F 47.8 °F 30.1 in West 0.9 mph 6 mph 59% 0 in 5 W/m2
06:25 62.4 °F 47.8 °F 30.1 in West 0.9 mph 6 mph 59% 0 in 7 W/m2
06:30 62.4 °F 47.8 °F 30.1 in SW 2 mph 2 mph 59% 0 in 9 W/m2
06:35 62.4 °F 47.8 °F 30.1 in Calm   2 mph 59% 0 in 11 W/m2
06:40 62.2 °F 48.2 °F 30.1 in West 2 mph 4 mph 60% 0 in 12 W/m2
06:45 62.2 °F 47.7 °F 30.1 in WNW 2 mph 3 mph 59% 0 in 16 W/m2
06:50 62.4 °F 47.8 °F 30.1 in West 2 mph 4 mph 59% 0 in 18 W/m2
06:55 62.6 °F 48 °F 30.1 in West 0.9 mph 2 mph 59% 0 in 19 W/m2
07:00 62.6 °F 48 °F 30.1 in West 0.9 mph 3 mph 59% 0 in 19 W/m2
07:05 62.8 °F 48.2 °F 30.1 in Calm   3 mph 59% 0 in 21 W/m2
07:10 62.8 °F 48.2 °F 30.1 in West 2 mph 4 mph 59% 0 in 23 W/m2
07:15 62.8 °F 48.2 °F 30.1 in NW 2 mph 4 mph 59% 0 in 25 W/m2
07:21 63 °F 48.4 °F 30.1 in NW 0.9 mph 1 mph 59% 0 in 25 W/m2
07:26 63 °F 48.4 °F 30.1 in SSW 0.9 mph 1 mph 59% 0 in 26 W/m2
07:31 63 °F 48.4 °F 30.2 in West 0.9 mph 3 mph 59% 0 in 88 W/m2
07:36 63.3 °F 48.7 °F 30.2 in NNW 2 mph 3 mph 59% 0 in 100 W/m2
07:41 63.7 °F 48.6 °F 30.2 in West 4 mph 7 mph 58% 0 in 113 W/m2
07:46 63.9 °F 48.7 °F 30.2 in NNW 0.9 mph 3 mph 58% 0 in 130 W/m2
07:51 64.2 °F 48.7 °F 30.2 in West 2.9 mph 7 mph 57% 0 in 144 W/m2
07:56 64.4 °F 48.9 °F 30.2 in West 0.9 mph 4 mph 57% 0 in 162 W/m2
08:01 64.6 °F 48.6 °F 30.2 in NNW 2 mph 4 mph 56% 0 in 179 W/m2
08:06 64.8 °F 48.7 °F 30.2 in North 2 mph 4 mph 56% 0 in 193 W/m2
08:11 65.3 °F 49.3 °F 30.2 in North 0.9 mph 3 mph 56% 0 in 209 W/m2
08:16 65.7 °F 49.1 °F 30.2 in NNW 2.9 mph 5 mph 55% 0 in 197 W/m2
08:21 65.5 °F 48.9 °F 30.2 in NW 0.9 mph 5 mph 55% 0 in 118 W/m2
08:26 65.7 °F 49.1 °F 30.2 in NNW 2.9 mph 4 mph 55% 0 in 44 W/m2
08:31 65.8 °F 49.3 °F 30.2 in West 2 mph 4 mph 55% 0 in 39 W/m2
08:36 65.8 °F 49.3 °F 30.2 in WNW 2.9 mph 4 mph 55% 0 in 39 W/m2
08:41 65.8 °F 49.3 °F 30.2 in WNW 4 mph 6 mph 55% 0 in 39 W/m2
08:46 66 °F 49.8 °F 30.2 in North 0.9 mph 2 mph 56% 0 in 39 W/m2
08:51 66.6 °F 49.8 °F 30.2 in ESE 2 mph 6 mph 55% 0 in 39 W/m2
08:56 66.9 °F 49.8 °F 30.2 in Calm   3 mph 54% 0 in 39 W/m2
09:01 66.9 °F 49.8 °F 30.2 in NW 2.9 mph 4 mph 54% 0 in 39 W/m2
09:06 67.1 °F 50.4 °F 30.2 in WNW 0.9 mph 5 mph 55% 0 in 40 W/m2
09:11 67.3 °F 50.5 °F 30.2 in WNW 2 mph 4 mph 55% 0 in 39 W/m2
09:16 67.5 °F 50.2 °F 30.2 in NW 2.9 mph 5 mph 54% 0 in 39 W/m2
09:21 67.8 °F 50 °F 30.2 in North 2.9 mph 6 mph 53% 0 in 40 W/m2
09:26 68 °F 50.2 °F 30.2 in NNW 2 mph 4 mph 53% 0 in 42 W/m2
09:31 68.4 °F 50.5 °F 30.2 in WNW 4 mph 6 mph 53% 0 in 42 W/m2
09:36 68.7 °F 50.4 °F 30.2 in NW 2 mph 4 mph 52% 0 in 42 W/m2
09:41 69.3 °F 50.9 °F 30.2 in East 2 mph 4 mph 52% 0 in 42 W/m2
09:46 69.6 °F 50.2 °F 30.2 in ENE 0.9 mph 7 mph 50% 0 in 44 W/m2
09:51 70.2 °F 50.7 °F 30.2 in West 4 mph 8 mph 50% 0 in 42 W/m2
09:56 70.5 °F 50.9 °F 30.2 in ENE 2 mph 3 mph 50% 0 in 44 W/m2
10:01 71.1 °F 50.9 °F 30.2 in NNW 0.9 mph 8 mph 49% 0 in 49 W/m2
10:06 71.4 °F 50.7 °F 30.2 in NNW 2.9 mph 4 mph 48% 0 in 53 W/m2
10:11 72 °F 50.7 °F 30.2 in Calm   4 mph 47% 0 in 176 W/m2
10:16 72 °F 50.7 °F 30.2 in NW 0.9 mph 3 mph 47% 0 in 399 W/m2
10:21 72.3 °F 50.9 °F 30.2 in WNW 2 mph 3 mph 47% 0 in 543 W/m2
10:26 73 °F 51.1 °F 30.2 in NNW 6 mph 7 mph 46% 0 in 575 W/m2
10:31 73.2 °F 50.5 °F 30.2 in ENE 2 mph 4 mph 45% 0 in 584 W/m2
10:36 73.8 °F 51.1 °F 30.2 in NNE 2.9 mph 9 mph 45% 0 in 613 W/m2
10:41 73.8 °F 51.1 °F 30.2 in North 4.9 mph 8 mph 45% 0 in 622 W/m2
10:46 73.9 °F 50.7 °F 30.2 in WNW 0.9 mph 5 mph 44% 0 in 636 W/m2
10:51 74.5 °F 51.8 °F 30.2 in East 8.9 mph 10 mph 45% 0 in 652 W/m2
10:56 74.8 °F 50.2 °F 30.2 in NNW 4.9 mph 8 mph 42% 0 in 512 W/m2
11:01 74.7 °F 50.7 °F 30.2 in East 6 mph 8 mph 43% 0 in 566 W/m2
11:06 74.8 °F 50.9 °F 30.2 in NW 2.9 mph 8 mph 43% 0 in 612 W/m2
11:11 75.4 °F 50.7 °F 30.2 in SW 2 mph 8 mph 42% 0 in 656 W/m2
11:16 76.3 °F 50.9 °F 30.2 in ESE 4.9 mph 12 mph 41% 0 in 710 W/m2
11:21 76.5 °F 50.4 °F 30.2 in NNW 2.9 mph 6 mph 40% 0 in 682 W/m2
11:26 76.6 °F 50.5 °F 30.2 in NE 0.9 mph 12 mph 40% 0 in 687 W/m2
11:31 77.5 °F 50.5 °F 30.2 in West 6.9 mph 11 mph 39% 0 in 693 W/m2
11:36 77.5 °F 50 °F 30.2 in NNE 4.9 mph 11 mph 38% 0 in 652 W/m2
11:41 77.5 °F 49.3 °F 30.2 in East 8.9 mph 11 mph 37% 0 in 700 W/m2
11:46 77.7 °F 49.5 °F 30.2 in ENE 2.9 mph 8 mph 37% 0 in 708 W/m2
11:51 78.1 °F 49.6 °F 30.2 in SSW 2.9 mph 10 mph 37% 0 in 684 W/m2
11:56 78.4 °F 49.3 °F 30.2 in NW 2.9 mph 5 mph 36% 0 in 666 W/m2
12:01 78.4 °F 49.3 °F 30.2 in NNW 4 mph 8 mph 36% 0 in 633 W/m2
12:06 78.3 °F 49.1 °F 30.2 in NE 2.9 mph 5 mph 36% 0 in 635 W/m2
12:11 78.4 °F 49.3 °F 30.2 in NE 4 mph 9 mph 36% 0 in 742 W/m2
12:16 79 °F 49.8 °F 30.2 in East 8.9 mph 9 mph 36% 0 in 726 W/m2
12:21 79.3 °F 50 °F 30.2 in ESE 4 mph 8 mph 36% 0 in 761 W/m2
12:26 79.5 °F 49.5 °F 30.2 in East 6 mph 8 mph 35% 0 in 775 W/m2
12:31 80.1 °F 49.1 °F 30.2 in East 6.9 mph 15 mph 34% 0 in 777 W/m2
12:36 80.1 °F 50 °F 30.2 in NE 2.9 mph 3 mph 35% 0 in 786 W/m2
12:41 80.2 °F 50.2 °F 30.2 in NNW 0.9 mph 4 mph 35% 0 in 814 W/m2
12:46 80.4 °F 49.5 °F 30.2 in NNW 2 mph 5 mph 34% 0 in 773 W/m2
12:51 80.8 °F 50.5 °F 30.2 in ENE 2 mph 5 mph 35% 0 in 786 W/m2
12:56 81.1 °F 49.3 °F 30.2 in SE 2 mph 5 mph 33% 0 in 821 W/m2
13:01 81.7 °F 49.8 °F 30.2 in NNW 2 mph 9 mph 33% 0 in 726 W/m2
13:06 81.9 °F 50 °F 30.1 in ENE 4 mph 12 mph 33% 0 in 807 W/m2
13:11 81.5 °F 50.4 °F 30.1 in East 6.9 mph 7 mph 34% 0 in 809 W/m2
13:16 81.7 °F 49.8 °F 30.1 in NNW 2.9 mph 12 mph 33% 0 in 826 W/m2
13:21 81.9 °F 50 °F 30.1 in North 2.9 mph 5 mph 33% 0 in 823 W/m2
13:26 82 °F 50.2 °F 30.1 in SW 2 mph 9 mph 33% 0 in 810 W/m2
13:31 82.2 °F 49.5 °F 30.1 in WNW 0.9 mph 8 mph 32% 0 in 826 W/m2
13:35 81.9 °F 50 °F 30.1 in NNE 2.9 mph 11 mph 33% 0 in 846 W/m2
13:40 82 °F 50.9 °F 30.1 in NE 6.9 mph 9 mph 34% 0 in 831 W/m2
13:45 82 °F 49.3 °F 30.1 in NNE 2 mph 4 mph 32% 0 in 833 W/m2
13:50 82 °F 49.3 °F 30.1 in Calm   9 mph 32% 0 in 809 W/m2
13:56 82.2 °F 49.5 °F 30.1 in ESE 2.9 mph 8 mph 32% 0 in 816 W/m2
14:01 82.6 °F 50.5 °F 30.1 in NE 0.9 mph 4 mph 33% 0 in 833 W/m2
14:06 82.8 °F 49.8 °F 30.1 in West 2 mph 4 mph 32% 0 in 831 W/m2
14:11 82.8 °F 49.8 °F 30.1 in East 2.9 mph 10 mph 32% 0 in 796 W/m2
14:16 82.9 °F 49.3 °F 30.1 in NNW 4.9 mph 8 mph 31% 0 in 835 W/m2
14:21 82.9 °F 49.3 °F 30.1 in NNE 6.9 mph 10 mph 31% 0 in 824 W/m2
14:26 82.8 °F 49.8 °F 30.1 in SSE 2.9 mph 5 mph 32% 0 in 844 W/m2
14:31 82.8 °F 49.8 °F 30.1 in East 2.9 mph 10 mph 32% 0 in 840 W/m2
14:36 83.1 °F 50.2 °F 30.1 in ESE 2 mph 8 mph 32% 0 in 838 W/m2
14:41 83.3 °F 49.5 °F 30.1 in ENE 0.9 mph 10 mph 31% 0 in 838 W/m2
14:46 83.7 °F 49.8 °F 30.1 in ESE 2.9 mph 5 mph 31% 0 in 835 W/m2
14:51 83.5 °F 49.6 °F 30.1 in NNW 2.9 mph 6 mph 31% 0 in 831 W/m2
14:56 83.5 °F 49.6 °F 30.1 in ENE 2 mph 4 mph 31% 0 in 830 W/m2
15:01 83.7 °F 49.8 °F 30.1 in ESE 6 mph 6 mph 31% 0 in 831 W/m2
15:06 84 °F 50.2 °F 30.1 in East 2.9 mph 8 mph 31% 0 in 831 W/m2
15:11 84 °F 50.2 °F 30.1 in ESE 6 mph 9 mph 31% 0 in 816 W/m2
15:16 84 °F 50.2 °F 30.1 in NNE 0.9 mph 4 mph 31% 0 in 814 W/m2
15:21 84.2 °F 50.4 °F 30.1 in North 4 mph 6 mph 31% 0 in 810 W/m2
15:26 84.6 °F 50.5 °F 30.1 in SE 0.9 mph 4 mph 31% 0 in 788 W/m2
15:31 84.9 °F 50 °F 30.1 in NNW 0.9 mph 9 mph 30% 0 in 784 W/m2
15:36 84.9 °F 50 °F 30.1 in NNW 4 mph 9 mph 30% 0 in 786 W/m2
15:41 84.7 °F 49.8 °F 30.1 in ENE 0.9 mph 6 mph 30% 0 in 780 W/m2
15:46 84.9 °F 50 °F 30.1 in Calm   7 mph 30% 0 in 768 W/m2
15:51 85.3 °F 50.4 °F 30.1 in NW 2 mph 3 mph 30% 0 in 759 W/m2
15:56 85.5 °F 49.6 °F 30.1 in Calm   5 mph 29% 0 in 754 W/m2
16:01 85.3 °F 50.4 °F 30.1 in WNW 4 mph 5 mph 30% 0 in 745 W/m2
16:06 85.5 °F 50.5 °F 30.1 in Calm   4 mph 30% 0 in 737 W/m2
16:11 85.6 °F 50.7 °F 30.1 in NNW 2.9 mph 5 mph 30% 0 in 726 W/m2
16:16 85.6 °F 50.7 °F 30.1 in NE 0.9 mph 3 mph 30% 0 in 719 W/m2
16:21 85.8 °F 49.8 °F 30.1 in NE 2.9 mph 7 mph 29% 0 in 691 W/m2
16:26 85.6 °F 49.8 °F 30.1 in ESE 2 mph 8 mph 29% 0 in 691 W/m2
16:31 85.8 °F 50.7 °F 30.1 in NE 4.9 mph 10 mph 30% 0 in 686 W/m2
16:36 85.8 °F 49.8 °F 30.1 in ESE 2 mph 7 mph 29% 0 in 670 W/m2
16:41 85.6 °F 49.8 °F 30.1 in NW 2 mph 9 mph 29% 0 in 663 W/m2
16:46 85.3 °F 49.5 °F 30.1 in NW 2 mph 14 mph 29% 0 in 650 W/m2
16:51 85.8 °F 49.8 °F 30.1 in ENE 2 mph 4 mph 29% 0 in 649 W/m2
16:56 86.2 °F 50.2 °F 30.1 in SE 4 mph 14 mph 29% 0 in 640 W/m2
17:01 86.4 °F 50.4 °F 30.1 in NNW 2 mph 4 mph 29% 0 in 629 W/m2
17:06 87.1 °F 50 °F 30.1 in ENE 2 mph 5 mph 28% 0 in 612 W/m2
17:11 87.1 °F 50.9 °F 30.1 in SE 4 mph 9 mph 29% 0 in 601 W/m2
17:16 86.5 °F 50.5 °F 30.1 in East 2.9 mph 3 mph 29% 0 in 566 W/m2
17:21 86.5 °F 50.5 °F 30.1 in NNW 2 mph 8 mph 29% 0 in 545 W/m2
17:26 86.4 °F 50.4 °F 30.1 in NNW 4 mph 7 mph 29% 0 in 555 W/m2
17:31 86.5 °F 50.5 °F 30.1 in ENE 0.9 mph 4 mph 29% 0 in 548 W/m2
17:36 86.5 °F 49.6 °F 30.1 in SSE 0.9 mph 8 mph 28% 0 in 536 W/m2
17:41 86.2 °F 49.3 °F 30.1 in ENE 4 mph 9 mph 28% 0 in 522 W/m2
17:46 85.8 °F 49.8 °F 30.1 in NNW 4.9 mph 6 mph 29% 0 in 510 W/m2
17:51 86.2 °F 49.3 °F 30.1 in NNW 2.9 mph 9 mph 28% 0 in 492 W/m2
17:56 86.4 °F 49.5 °F 30.1 in West 6 mph 7 mph 28% 0 in 482 W/m2
18:01 86.4 °F 49.5 °F 30.1 in North 6 mph 8 mph 28% 0 in 469 W/m2
18:06 86.5 °F 49.6 °F 30.1 in SSW 2 mph 6 mph 28% 0 in 455 W/m2
18:11 86.5 °F 49.6 °F 30.1 in WNW 0.9 mph 3 mph 28% 0 in 443 W/m2
18:16 86.2 °F 50.2 °F 30.1 in WNW 2.9 mph 5 mph 29% 0 in 431 W/m2
18:21 86.2 °F 50.2 °F 30.1 in SSE 2 mph 6 mph 29% 0 in 408 W/m2
18:26 86.4 °F 50.4 °F 30.1 in SE 0.9 mph 6 mph 29% 0 in 381 W/m2
18:31 86.4 °F 49.5 °F 30.1 in NE 2 mph 4 mph 28% 0 in 369 W/m2
18:36 86.2 °F 49.3 °F 30.1 in ENE 4 mph 4 mph 28% 0 in 360 W/m2
18:41 85.8 °F 48.9 °F 30.1 in NW 4 mph 9 mph 28% 0 in 350 W/m2
18:46 85.8 °F 48.9 °F 30.1 in NW 4 mph 8 mph 28% 0 in 339 W/m2
18:51 85.8 °F 49.8 °F 30.1 in NNW 0.9 mph 9 mph 29% 0 in 322 W/m2
18:56 86 °F 49.1 °F 30.1 in NW 0.9 mph 1 mph 28% 0 in 301 W/m2
19:01 86.2 °F 49.3 °F 30.1 in WSW 0.9 mph 8 mph 28% 0 in 274 W/m2
19:06 86.2 °F 49.3 °F 30.1 in West 2 mph 4 mph 28% 0 in 225 W/m2
19:11 86.2 °F 49.3 °F 30.1 in East 0.9 mph 6 mph 28% 0 in 49 W/m2
19:16 85.8 °F 49.8 °F 30.1 in South 2 mph 4 mph 29% 0 in 47 W/m2
19:21 85.8 °F 49.8 °F 30.1 in Calm   3 mph 29% 0 in 44 W/m2
19:26 85.8 °F 49.8 °F 30.1 in SW 2 mph 4 mph 29% 0 in 40 W/m2
19:31 86 °F 49.1 °F 30.1 in NNE 2 mph 4 mph 28% 0 in 39 W/m2
19:36 85.6 °F 48.7 °F 30.1 in NW 0.9 mph 2 mph 28% 0 in 37 W/m2
19:41 85.3 °F 48.6 °F 30.1 in West 2 mph 6 mph 28% 0 in 35 W/m2
19:46 84.9 °F 49.1 °F 30.1 in West 0.9 mph 4 mph 29% 0 in 33 W/m2
19:51 84.7 °F 48.9 °F 30.1 in South 2 mph 6 mph 29% 0 in 32 W/m2
19:56 84.6 °F 48.7 °F 30.1 in Calm   6 mph 29% 0 in 30 W/m2
20:01 84 °F 48.4 °F 30.1 in NNW 0.9 mph 7 mph 29% 0 in 28 W/m2
20:06 83.7 °F 48 °F 30.1 in SSW 0.9 mph 4 mph 29% 0 in 28 W/m2
20:11 83.5 °F 47.8 °F 30.1 in South 2 mph 3 mph 29% 0 in 26 W/m2
20:16 83.1 °F 47.7 °F 30.1 in North 2 mph 4 mph 29% 0 in 25 W/m2
20:21 82.8 °F 48.2 °F 30.1 in WNW 2 mph 2 mph 30% 0 in 21 W/m2
20:26 82.2 °F 47.7 °F 30.1 in Calm   4 mph 30% 0 in 18 W/m2
20:31 81.9 °F 48.2 °F 30.1 in SE 2 mph 6 mph 31% 0 in 16 W/m2
20:36 81.3 °F 47.8 °F 30.1 in NNW 0.9 mph 2 mph 31% 0 in 16 W/m2
20:41 81 °F 47.5 °F 30.1 in NE 0.9 mph 4 mph 31% 0 in 12 W/m2
20:46 80.8 °F 47.3 °F 30.1 in NE 0.9 mph 4 mph 31% 0 in 11 W/m2
20:51 80.4 °F 47.8 °F 30.1 in ENE 2 mph 4 mph 32% 0 in 9 W/m2
20:56 80.1 °F 47.5 °F 30.1 in ESE 0.9 mph 1 mph 32% 0 in 7 W/m2
21:01 79.9 °F 47.3 °F 30.1 in NNW 0.9 mph 2 mph 32% 0 in 5 W/m2
21:06 79.3 °F 47.7 °F 30.1 in NNW 0.9 mph 3 mph 33% 0 in 0 W/m2
21:11 79.2 °F 47.7 °F 30.1 in Calm   1 mph 33% 0 in 0 W/m2
21:16 78.8 °F 48 °F 30.1 in NW 2 mph 3 mph 34% 0 in 0 W/m2
21:21 78.4 °F 48.6 °F 30.1 in WNW 2 mph 3 mph 35% 0 in 0 W/m2
21:26 77.9 °F 48 °F 30.1 in Calm   4 mph 35% 0 in 0 W/m2
21:31 77.5 °F 48.6 °F 30.1 in WNW 0.9 mph 4 mph 36% 0 in 0 W/m2
21:36 77.2 °F 48.9 °F 30.1 in NNW 2 mph 3 mph 37% 0 in 0 W/m2
21:41 76.6 °F 49.1 °F 30.1 in NNE 2.9 mph 4 mph 38% 0 in 0 W/m2
21:46 76.5 °F 49.6 °F 30.1 in NW 0.9 mph 3 mph 39% 0 in 0 W/m2
21:51 76.1 °F 49.3 °F 30.2 in NNW 4.9 mph 6 mph 39% 0 in 0 W/m2
21:56 75.9 °F 49.8 °F 30.2 in WSW 0.9 mph 3 mph 40% 0 in 0 W/m2
22:02 75.6 °F 50.2 °F 30.2 in North 0.9 mph 8 mph 41% 0 in 0 W/m2
22:07 75.4 °F 50 °F 30.2 in SW 2.9 mph 4 mph 41% 0 in 0 W/m2
22:12 75 °F 49.6 °F 30.2 in WNW 0.9 mph 8 mph 41% 0 in 0 W/m2
22:17 74.8 °F 50.2 °F 30.2 in NW 0.9 mph 5 mph 42% 0 in 0 W/m2
22:22 74.7 °F 50 °F 30.2 in NNW 2.9 mph 3 mph 42% 0 in 0 W/m2
22:27 74.5 °F 50.5 °F 30.2 in Calm   2 mph 43% 0 in 0 W/m2
22:32 74.3 °F 50.4 °F 30.2 in North 0.9 mph 2 mph 43% 0 in 0 W/m2
22:37 74.1 °F 50.9 °F 30.2 in NNW 0.9 mph 2 mph 44% 0 in 0 W/m2
22:42 73.9 °F 50.7 °F 30.2 in NNW 2 mph 3 mph 44% 0 in 0 W/m2
22:47 73.6 °F 50.4 °F 30.2 in West 2.9 mph 3 mph 44% 0 in 0 W/m2
22:52 73.6 °F 50.4 °F 30.2 in NNE 5 mph 5 mph 44% 0 in 0 W/m2
22:57 73.4 °F 50.7 °F 30.2 in West 2 mph 6 mph 45% 0 in 0 W/m2
23:02 73.2 °F 50.5 °F 30.2 in Calm   4 mph 45% 0 in 0 W/m2
23:07 73 °F 50.4 °F 30.2 in NW 2 mph 5 mph 45% 0 in 0 W/m2
23:12 72.9 °F 50.9 °F 30.2 in West 2 mph 3 mph 46% 0 in 0 W/m2
23:17 72.7 °F 50.7 °F 30.2 in West 2.9 mph 5 mph 46% 0 in 0 W/m2
23:22 72.5 °F 51.1 °F 30.2 in NW 2.9 mph 3 mph 47% 0 in 0 W/m2
23:27 72.3 °F 50.9 °F 30.2 in NNE 2.9 mph 8 mph 47% 0 in 0 W/m2
23:32 72.1 °F 51.4 °F 30.2 in West 4 mph 4 mph 48% 0 in 0 W/m2
23:37 72 °F 51.3 °F 30.2 in North 2.9 mph 8 mph 48% 0 in 0 W/m2
23:42 72 °F 51.8 °F 30.2 in WNW 2.9 mph 3 mph 49% 0 in 0 W/m2
23:47 71.8 °F 51.6 °F 30.2 in ESE 0.9 mph 6 mph 49% 0 in 0 W/m2
23:52 71.6 °F 52 °F 30.2 in North 2.9 mph 8 mph 50% 0 in 0 W/m2
23:57 71.4 °F 51.8 °F 30.2 in NW 0.9 mph 5 mph 50% 0 in 0 W/m2
Juneau County Weather
Compliments of Weather Underground - 4 mb